Regional Weather Roundup
Issued by NWS Sterling, VA

Home | Current Version | Previous Version | Text Only | Print | Product List | Glossary Off
Versions: 1 2 3 4 5 6 7 8 9 10 11 12 13 14 15 16 17 18 19 20 21 22 23 24 25 26 27 28 29 30 31 32 33 34 35 36 37 38 39 40 41 42 43 44 45 46 47 48 49 50

000
ASUS41 KLWX 291810
RWRLWX

REGIONAL WEATHER ROUNDUP
NATIONAL WEATHER SERVICE BALTIMORE MD/WASHINGTON DC
100 PM EST THU JAN 29 2015

Note: "FAIR" indicates few or no clouds below 12,000 feet
with no significant weather and/or obstructions to visibility.
 TC=TEMPERATURE CELSIUS

 * =Non NWS site. Station does not report precipitation (e.g. rain,
    snow, etc.), thunder, or fog.

DCZ001-MDZ009-015-VAZ040>042-051-053>054-291900-
WASHINGTON METRO

CITY           SKY/WX    TMP DP  RH WIND       PRES   REMARKS
WASHINGTON NAT CLOUDY    37  13  37 S10       30.21F
DULLES         CLOUDY    32  10  40 SE10G16   30.17F WCI  24
FT BELVOIR     CLOUDY    35  15  44 SE7       30.21F
COLLEGE PARK*  CLOUDY    36  12  38 S5        30.21F
LEESBURG*      CLOUDY    34  16  47 S9        30.17F WCI  26
GAITHERSBURG*  CLOUDY    32   9  37 SE10      30.19F WCI  24

$$

MDZ006>007-011-014-291900-
BALTIMORE METRO

CITY           SKY/WX    TMP DP  RH WIND       PRES   REMARKS
BWI AIRPORT    CLOUDY    32  11  41 SE7       30.20F
MD SCIENCE CTR   N/A     32  13  45 MISG      30.22F
MARTIN STATE   CLOUDY    34  16  47 SE10      30.25F WCI  26
ANNAPOLIS      CLOUDY    33  15  47 S9        30.23F WCI  25
FORT MEADE*    CLOUDY    34  16  47 SE7       30.23F

$$

MDZ012-015-019>023-291900-
MARYLAND EASTERN SHORE

CITY           SKY/WX    TMP DP  RH WIND       PRES   REMARKS
OCEAN CITY     PTSUNNY   34  20  56 S6        30.25F
SALISBURY      CLOUDY    39  10  30 SE7       30.23F
BAY BRIDGE AP*   N/A     32  10  40 SE9       30.23F WCI  24
CAMBRIDGE*     CLOUDY    36  14  41 S7        30.23F
EASTON*        CLOUDY    36  14  41 S7        30.26F

$$

MDZ017>025-291900-
SOUTHERN MARYLAND

CITY           SKY/WX    TMP DP  RH WIND       PRES   REMARKS
PATUXENT RIVER CLOUDY    36  14  40 S7        30.24F
ST INIGOES     CLOUDY    35  17  47 SE9       30.24F WCI  28
LEONARDTOWN*   CLOUDY    34  16  47 S6        30.25F

$$

MDZ003>005-291900-
NORTH CENTRAL MARYLAND

CITY           SKY/WX    TMP DP  RH WIND       PRES   REMARKS
FREDERICK*     CLOUDY    32  12  43 CALM      30.18F
HAGERSTOWN APT CLOUDY    30   7  37 S9        30.11F WCI  22
WESTMINSTER*   PTSUNNY   30   9  40 S8        30.15F WCI  23

$$

MDZ501>502-291900-
WESTERN MARYLAND

CITY           SKY/WX    TMP DP  RH WIND       PRES   REMARKS
OAKLAND*       CLOUDY    32  14  47 SE9       29.90F WCI  24
CUMBERLAND*    CLOUDY    28  14  54 CALM      30.09F

$$

VAZ025>031-291900-
SHENANDOAH VALLEY

CITY           SKY/WX    TMP DP  RH WIND       PRES   REMARKS
WINCHESTER*    CLOUDY    36   7  30 S9G16     30.08F WCI  29
FRONT ROYAL*   FAIR      37  14  38 S8        30.07F
LURAY*         FAIR      41  18  38 SW12      30.07F
NEW MARKET*    FAIR      38  19  46 SW10G16   30.06F
STAUNTON*      CLOUDY    39  12  32 S10       30.09F
WAYNESBORO*    FAIR      40  15  36 S7        30.08F

$$

WVZ021-048>050-054>055-291900-
EASTERN WEST VIRGINIA PANHANDLE

CITY           SKY/WX    TMP DP  RH WIND       PRES   REMARKS
MARTINSBURG    CLOUDY    33  11  39 SE6       30.10F
PETERSBURG*    CLOUDY    30  18  60 CALM      30.03F

$$

VAZ036>039-050-291900-
CENTRAL FOOTHILLS

CITY           SKY/WX    TMP DP  RH WIND       PRES   REMARKS
CHARLOTTESVILL CLOUDY    40   9  28 S12G18    30.14F
CULPEPER*      PTSUNNY   39  10  30 S9        30.16F
ORANGE*        PTSUNNY   39  10  30 S8        30.17F
GORDONSVILLE*  FAIR      37   8  30 S9        30.15F
WARRENTON*     FAIR      38  19  44 S8        30.16F

$$

VAZ055>057-291900-
NORTH AND CENTRAL PIEDMONT

CITY           SKY/WX    TMP DP  RH WIND       PRES   REMARKS
FREDERICKSBRG* PTSUNNY   39  10  30 S8        30.19F
STAFFORD*      CLOUDY    36  10  33 SE7       30.23F

$$

NCZ024-NYZ072-PAZ021-071-VAZ022-071-291900-
OTHER REGIONAL OBSERVATIONS

CITY           SKY/WX    TMP DP  RH WIND       PRES   REMARKS
NEW YORK CITY  MOSUNNY   32   9  38 CALM      30.24F
PHILADELPHIA   CLOUDY    33   7  33 S5        30.24F
PITTSBURGH     LGTSLEET  33  29  85 S6        29.85F
ROANOKE        PTSUNNY   40  18  41 CALM      30.14F
RICHMOND       CLOUDY    40  12  32 S9        30.23F
RALEIGH        PTSUNNY   44  14  29 S8        30.25F

$$

ANZ530>537-291900-
MARINE OBSERVATIONS

STATION/POSITION TIME  TEMP    WIND        PRES
                       AIR SEA DIR/SP/G
                 (UTC) (F)     (DEG/KT/KT) (MB)
THOMAS PT LIGHT  1800   32 35  180/ 16/ 17 1024.5F
BALT KEY BRIDGE  1800   31     130/ 11/ 12 1023.2F
COVE POINT       1800   31     190/ 13/ 15 1024.0F
LEWISETTA        1800   35 35  180/  6/  8 1023.8F
SOLOMONS ISLAND  1800      37                N/A
PINEY POINT      1800          190/  7/  9   N/A

$$



USA.gov is the U.S. government's official web portal to all federal, state and local government web resources and services.